Florence, SC

5:17 PM EST on January 21, 2017 (GMT -0500)
Florence Regional

Weather History for KFLO - December, 2012

Change the Weather History Date:

Thursday, December 6, 2012

  Actual Average Record
Temperature  
Mean Temperature 55 °F 49 °F  
Max Temperature 61 °F 60 °F 81 °F (1998)
Min Temperature 48 °F 38 °F 23 °F (1987)
Degree Days  
Heating Degree Days 10 16  
Month to date heating degree days 26 92  
Since 1 July heating degree days 503 514  
Cooling Degree Days 0 0  
Month to date cooling degree days 2 0  
Year to date cooling degree days 2312 2059  
Growing Degree Days 4 (Base 50)    
Moisture  
Dew Point 43 °F    
Average Humidity 69    
Maximum Humidity 86    
Minimum Humidity 51    
Precipitation  
Precipitation 0.20 in 0.09 in 0.85 in (1983)
Month to date precipitation 0.20 0.54  
Year to date precipitation 37.72 40.44  
Sea Level Pressure  
Sea Level Pressure 30.20 in    
Wind  
Wind Speed 10 mph (NE)    
Max Wind Speed 17 mph    
Max Gust Speed 21 mph    
Visibility 9 miles    
Events Rain    
T = Trace of Precipitation, MM = Missing Value Source: NWS Daily Summary

Daily Weather History Graph

Daily Weather History Graph

Search for Another Location

Airport or City:

Trip Planner

Search our weather history database for the weather conditions in past years. The results will help you decide how hot, cold, wet, or windy it might be!

Date:

Astronomy

Dec. 06, 2012 Rise Set
Actual Time 7:11 AM EST 5:09 PM EST
Civil Twilight 6:43 AM EST 5:36 PM EST
Nautical Twilight 6:12 AM EST 6:07 PM EST
Astronomical Twilight 5:41 AM EST 6:38 PM EST
Moon No Moon Rise 12:18 PM EST (12/6)
Length of Visible Light 10h 53m
Length of Day
9h 57m
Waning Gibbous, 49% of the Moon is Illuminated
Dec 6
Waning Gibbous
Dec 13
New
Dec 20
First Quarter
Dec 28
Full
Jan 4
Last Quarter

Hourly Weather History & Observations

Time (EST) Temp. Dew Point Humidity Pressure Visibility Wind Dir Wind Speed Gust Speed Precip Events Conditions
12:53 AM 59.0 °F 51.1 °F 75% 30.16 in 10.0 mi NE 9.2 mph - N/A   Overcast
1:49 AM 57.2 °F 53.6 °F 88% 30.18 in 4.0 mi NE 5.8 mph - 0.09 in Rain Light Rain
1:53 AM 57.0 °F 53.1 °F 87% 30.18 in 4.0 mi NE 6.9 mph - 0.09 in Rain Light Rain
2:18 AM 55.4 °F 53.6 °F 94% 30.18 in 4.0 mi ENE 10.4 mph - 0.07 in Rain Light Rain
2:53 AM 55.9 °F 52.0 °F 87% 30.17 in 6.0 mi ENE 11.5 mph - 0.11 in Rain Light Rain
3:18 AM 55.4 °F 51.8 °F 88% 30.18 in 10.0 mi ENE 10.4 mph - 0.00 in   Overcast
3:53 AM 55.0 °F 50.0 °F 83% 30.17 in 10.0 mi ENE 15.0 mph - 0.00 in   Overcast
4:53 AM 53.1 °F 46.9 °F 80% 30.17 in 10.0 mi ENE 10.4 mph - N/A   Overcast
5:16 AM 53.6 °F 48.2 °F 82% 30.18 in 10.0 mi ENE 6.9 mph - N/A   Overcast
5:53 AM 53.1 °F 48.9 °F 86% 30.19 in 10.0 mi ENE 8.1 mph - N/A   Overcast
6:53 AM 53.1 °F 46.0 °F 77% 30.21 in 10.0 mi ENE 6.9 mph - N/A   Overcast
7:53 AM 53.1 °F 46.0 °F 77% 30.23 in 10.0 mi ENE 9.2 mph - N/A   Overcast
8:13 AM 53.6 °F 46.4 °F 77% 30.24 in 10.0 mi NE 8.1 mph - N/A   Overcast
8:53 AM 53.1 °F 46.0 °F 77% 30.25 in 10.0 mi NE 8.1 mph - N/A   Overcast
9:34 AM 53.6 °F 44.6 °F 72% 30.26 in 10.0 mi NE 13.8 mph - N/A   Overcast
9:53 AM 53.1 °F 43.0 °F 69% 30.26 in 10.0 mi NE 15.0 mph 19.6 mph N/A   Overcast
10:53 AM 52.0 °F 41.0 °F 66% 30.26 in 10.0 mi ENE 13.8 mph - N/A   Overcast
11:53 AM 53.1 °F 39.9 °F 61% 30.23 in 10.0 mi ENE 12.7 mph - N/A   Overcast
12:53 PM 53.1 °F 39.0 °F 59% 30.21 in 10.0 mi ENE 11.5 mph - N/A   Overcast
1:53 PM 55.0 °F 39.0 °F 55% 30.20 in 10.0 mi NNE 10.4 mph - N/A   Overcast
2:53 PM 55.0 °F 37.9 °F 53% 30.20 in 10.0 mi NE 10.4 mph - N/A   Overcast
3:53 PM 54.0 °F 37.9 °F 55% 30.19 in 10.0 mi ENE 12.7 mph - N/A   Overcast
4:53 PM 52.0 °F 37.9 °F 59% 30.22 in 10.0 mi NE 10.4 mph - N/A   Overcast
5:36 PM 51.8 °F 37.4 °F 58% 30.21 in 10.0 mi NE 8.1 mph - N/A   Overcast
5:53 PM 52.0 °F 37.0 °F 57% 30.22 in 10.0 mi ENE 8.1 mph - N/A   Overcast
6:53 PM 51.1 °F 37.0 °F 59% 30.23 in 10.0 mi NE 8.1 mph - N/A   Overcast
7:53 PM 51.1 °F 37.9 °F 61% 30.22 in 10.0 mi East 8.1 mph - N/A   Overcast
8:25 PM 50.0 °F 37.4 °F 62% 30.22 in 10.0 mi NE 4.6 mph - N/A   Overcast
8:53 PM 51.1 °F 37.9 °F 61% 30.22 in 10.0 mi NE 3.5 mph - N/A   Overcast
9:53 PM 50.0 °F 39.0 °F 66% 30.20 in 10.0 mi NE 5.8 mph - N/A   Overcast
10:53 PM 48.9 °F 37.9 °F 66% 30.18 in 10.0 mi ENE 5.8 mph - N/A   Overcast
11:29 PM 48.2 °F 37.4 °F 66% 30.17 in 10.0 mi ENE 6.9 mph - N/A   Overcast
11:53 PM 48.9 °F 37.9 °F 66% 30.17 in 10.0 mi NE 5.8 mph - N/A   Mostly Cloudy